Location: Rimrock Meadows
(47.4808°N, 119.7286°W)
Time: 02:22:18
(UTC-07:00)

Daily predictions for brighter satellites

Satellite Brightness Start Highest point End
(mag) Time Altitude Azimuth Time Altitude Azimuth Time Altitude Azimuth
Cosmos 1777 Rocket 4.4 00:02:00 10° NNW 00:06:54 55° NE 00:06:54 55° NE
Cosmos 1709 Rocket 4.3 00:09:34 52° WSW 00:10:34 59° WNW 00:16:45 10° N
Cosmos 2278 Rocket 2.7 00:08:13 10° NW 00:13:15 49° W 00:13:15 49° W
H-2A R/B 4.2 00:24:34 19° WNW 00:24:34 19° WNW 00:26:59 10° NW
COSMOS 2455 2.8 00:19:16 10° NNW 00:25:18 74° NE 00:25:24 74° ENE
RESURS DK-1 4.2 00:29:01 27° NNE 00:29:01 27° NNE 00:30:58 10° NNE
Meteor 2-5 Rocket 3.8 00:21:18 10° NNW 00:27:01 84° N 00:27:01 84° N
SL-08 ROCKET BODY 4.4 00:28:25 70° W 00:28:29 70° W 00:34:21 10° N
Meteor 1-24 Rocket 4.0 00:26:38 10° N 00:32:14 64° ENE 00:32:14 64° ENE
Cosmos 2219 Rocket 3.4 00:37:45 30° W 00:39:32 37° NW 00:44:47 10° NNE
Cosmos 2154 Rocket 4.2 00:40:26 58° E 00:40:26 58° E 00:46:18 10° NNE
CZ-2C R/B 2.9 00:37:20 10° N 00:42:23 66° NW 00:42:23 66° NW
SL-16 R/B 2.5 00:45:21 58° ENE 00:45:21 58° ENE 00:50:01 10° NNE
Cosmos 2327 Rocket 4.5 00:48:56 75° W 00:49:06 76° W 00:55:27 10° N
Cosmos 2333 Rocket 3.5 00:56:44 28° W 00:58:26 33° NW 01:03:33 10° NNE
Iridium 4 Rocket 4.3 01:05:30 40° NNE 01:05:30 40° NNE 01:08:28 10° N
Mayak 0.3 01:03:07 10° N 01:05:36 35° N 01:05:36 35° N
Cosmos 1943 Rocket 3.8 01:05:44 10° N 01:10:31 29° NE 01:12:39 22° E
SL-8 Rocket 4.4 01:14:38 50° E 01:14:43 50° E 01:20:42 10° NNE
Cosmos 962 Rocket 4.4 01:21:44 86° ENE 01:21:44 86° ENE 01:27:59 10° N
Cosmos 2237 Rocket 3.5 01:20:44 28° WNW 01:22:06 32° NW 01:27:08 10° NNE
Cosmos 2369 Rocket 2.7 01:17:21 10° NNW 01:22:58 54° ENE 01:23:26 52° ENE
ATLAS CENTAUR R/B 3.3 01:17:07 10° NW 01:25:23 53° WNW 01:25:23 53° WNW
Meteor 2-21 4.5 01:35:40 68° ESE 01:35:46 68° E 01:41:57 10° NNE
Nadezhda 3 Rocket 4.5 01:31:07 10° NNW 01:37:04 48° W 01:37:04 48° W
Cosmos 1943 4.2 01:37:57 35° E 01:37:57 35° E 01:42:28 10° NE
CENTAUR R/B 3.7 01:32:12 10° NW 01:38:54 39° WSW 01:38:54 39° WSW
Cosmos 2341 Rocket 4.0 01:40:04 72° W 01:40:12 72° W 01:46:29 10° N
Cosmos 1809 Rocket 4.4 01:40:52 77° ESE 01:40:57 77° E 01:47:10 10° NNE
Lacrosse 5 3.8 01:37:46 10° WNW 01:42:08 28° N 01:46:30 10° ENE
USA 215 3.6 01:47:50 47° W 01:47:50 47° W 01:52:53 10° WNW
H-2A R/B 4.1 01:46:25 10° NNE 01:48:32 29° NE 01:48:32 29° NE
Cosmos-2242 4.5 01:51:42 32° ENE 01:51:42 32° ENE 01:54:48 10° NNE
Cosmos 1339 Rocket 4.5 01:47:09 10° N 01:53:18 71° E 01:53:54 67° ESE
CZ-4B R/B 4.5 01:59:32 10° NNW 01:59:32 10° NNW 01:59:37 10° NNW
Cosmos 1470 4.4 02:01:04 33° NNE 02:01:04 33° NNE 02:03:19 10° NNE
Cosmos 864 Rocket 4.3 02:00:31 74° SE 02:00:53 77° E 02:07:05 10° NNE
Cosmos 2208 Rocket 4.2 02:03:57 68° NW 02:03:57 68° NW 02:09:08 10° NNE
ADEOS Rocket 3.6 02:03:04 10° NNE 02:08:11 38° E 02:08:42 38° ESE
Cosmos 2263 4.1 02:02:44 10° NNW 02:08:24 84° ENE 02:08:24 84° ENE
Cosmos 2366 rocket 3.8 02:09:12 77° SSW 02:09:42 88° W 02:16:07 10° N
Cosmos 1727 Rocket 3.8 02:04:36 10° N 02:10:48 87° W 02:11:15 78° S
Meteor 2-21 Rocket 4.3 02:12:57 76° SW 02:13:22 80° W 02:19:38 10° N
Cosmos 2058 4.5 02:12:32 10° N 02:16:11 29° ENE 02:16:15 29° ENE
Cosmos 1953 3.9 02:18:35 30° NNW 02:18:35 30° NNW 02:20:57 10° N
Meteor 2-15 Rocket 4.4 02:11:21 10° NNW 02:17:25 64° W 02:17:29 64° W
Cosmos 1603 3.8 02:19:17 61° WNW 02:19:32 62° WNW 02:25:08 10° NNE
Meteor 1-11 4.5 02:19:27 10° N 02:25:03 63° ENE 02:26:09 52° SE
Meteor 2-16 Rocket 4.3 02:26:14 71° SW 02:26:47 77° W 02:32:55 10° N
NPP 4.2 02:23:08 10° NNE 02:28:21 48° E 02:29:00 46° ESE
SL-16 R/B 3.8 02:27:13 21° WNW 02:29:02 24° NW 02:33:39 10° N
Cosmos 1842 Rocket 4.5 02:32:05 41° E 02:32:05 41° E 02:36:00 10° NNE
Cosmos 1763 Rocket 3.4 02:34:52 72° ESE 02:34:52 72° ESE 02:39:53 10° NNE
Cosmos 1937 Rocket 4.1 02:34:57 10° NNW 02:39:02 43° WNW 02:39:02 43° WNW
Cosmos 1743 Rocket 3.8 02:37:29 10° N 02:41:29 70° N 02:41:29 70° N
PSLV R/B 4.4 02:38:01 10° N 02:42:02 44° NW 02:42:02 44° NW
Cosmos 332 Rocket 4.2 02:43:39 51° WNW 02:43:39 51° WNW 02:48:25 10° NNE
Cosmos 2151 3.3 02:41:34 10° N 02:45:30 63° NE 02:45:30 63° NE
Cosmos 1242 Rocket 3.8 02:49:40 39° NE 02:49:40 39° NE 02:52:18 10° NNE
Cosmos 1125 Rocket 3.8 02:47:07 10° NNW 02:52:20 65° ENE 02:54:26 35° SE
Cosmos 1943 Rocket 2.3 02:49:12 10° NW 02:54:06 53° W 02:54:06 53° W
Cosmos 468 Rocket 4.4 02:55:06 45° WNW 02:55:29 46° WNW 03:00:29 10° NNE
Resurs 1-4 Rocket 2.8 02:53:50 10° NNE 02:58:54 46° E 03:00:31 35° SE
IRS-P3 4.0 02:54:29 10° NNE 02:59:53 90° WNW 03:00:45 64° SSW
Cosmos 2123 Rocket 4.2 02:55:49 10° N 03:02:04 66° ENE 03:05:32 28° SSE
Cosmos 1656 Rocket 3.7 02:56:37 10° NNW 03:02:21 82° ENE 03:05:19 30° SSE
SL-16 R/B 2.5 03:00:43 34° SSE 03:03:39 84° ENE 03:09:54 10° NNW
Cosmos 371 Rocket 4.0 03:06:13 39° WNW 03:06:34 39° WNW 03:11:09 10° N
Cosmos 2369 Rocket 3.5 03:01:57 10° NW 03:05:11 24° WNW 03:05:11 24° WNW
Cosmos 1821 Rocket 3.9 03:04:53 47° S 03:06:51 86° E 03:13:05 10° N
CZ-2D R/B 2.6 03:04:27 10° NNE 03:09:46 56° E 03:11:34 38° SSE
AQUA 3.7 03:07:21 10° NNE 03:12:10 87° W 03:12:47 68° SSW
Helios 1A Rocket 3.4 03:12:57 10° N 03:16:42 47° WNW 03:16:42 47° WNW
Gblst 52 Del rocket 4.2 03:15:51 46° WSW 03:17:44 89° NNW 03:23:22 10° ENE
USA 32 4.0 03:15:43 10° N 03:20:57 69° W 03:22:01 54° SSW
USA 229 DEB 3.7 03:14:02 10° NW 03:21:12 86° SW 03:28:31 10° SE
Cosmos 1943 3.9 03:19:46 34° W 03:21:18 41° NW 03:26:43 10° NNE
USA 229 3.7 03:14:09 10° NW 03:21:19 87° SW 03:28:37 10° SE
Cosmos 1934 Rocket 3.9 03:19:10 41° S 03:21:29 86° E 03:27:35 10° N
Cosmos 841 Rocket 3.6 03:22:03 50° WSW 03:23:03 59° WNW 03:28:11 10° NNE
Cosmos 1626 3.2 03:21:28 10° NNW 03:23:57 33° NW 03:23:57 33° NW
H-2A R/B 4.5 03:23:06 10° NNW 03:25:08 15° WNW 03:25:08 15° WNW
COBE Rocket 4.5 03:21:20 10° N 03:26:07 42° WNW 03:26:52 39° W
Lacrosse 5 3.2 03:21:25 10° NW 03:26:12 39° NNE 03:30:57 10° E
Cosmos 1500 Rocket 4.1 03:22:08 10° NNW 03:26:00 43° WNW 03:26:00 43° WNW
ARIANE 5 R/B 2.7 03:25:28 10° NNE 03:30:43 72° ESE 03:32:51 36° S
SL-08 R/B 4.1 03:33:57 34° W 03:33:57 34° W 03:37:58 10° NNW
UNKNOWN OBJECT B 4.0 03:29:54 10° NNE 03:33:44 39° E 03:35:28 26° SSE
Cosmos 1400 Rocket 2.7 03:30:02 10° N 03:33:59 86° E 03:34:44 58° SSE
Cosmos 1605 Rocket 4.1 03:32:10 28° S 03:35:46 78° E 03:42:11 10° NNE
UNK 3.8 03:35:53 51° WSW 03:36:20 54° W 03:40:51 10° NNW
Cosmos 304 Rocket 4.0 03:37:36 45° WSW 03:38:38 55° WNW 03:43:21 10° NNE
Cosmos 1726 3.3 03:38:32 26° SE 03:39:59 38° E 03:43:28 10° NNE
MOZ.5/SAFIR/RUBIN 5/SL-8 3.7 03:39:35 25° SSE 03:42:20 84° ENE 03:47:03 10° NNW
SL-27 R/B 4.1 03:41:54 21° SE 03:43:01 26° ESE 03:45:56 10° NE
Cosmos 1703 4.4 03:41:35 10° NNW 03:44:21 29° WNW 03:44:21 29° WNW
ADEOS II 4.0 03:44:56 10° NE 03:49:15 25° E 03:53:32 10° SSE
Cosmos 1666 Rocket 3.7 03:48:17 10° N 03:52:44 77° E 03:56:02 18° SSE
Cosmos 2058 4.2 03:49:35 10° NNW 03:52:27 25° WNW 03:52:27 25° WNW
ADEOS Rocket 3.7 03:48:49 10° N 03:53:42 33° WNW 03:55:38 26° W
Cosmos 1805 Rocket 3.5 03:50:16 10° NNW 03:54:42 69° W 03:56:30 34° S
IRS-1D 3.6 03:50:14 10° N 03:55:19 64° WNW 03:57:32 34° SW
NOSS 3-1 (C) 4.1 03:48:27 10° NW 03:55:55 84° NE 04:04:15 10° SE
Cosmos 2221 2.6 03:54:47 43° SW 03:55:55 59° WNW 04:00:13 10° N
Abrixas 4.0 04:00:12 22° SE 04:00:12 22° SE 04:01:22 10° ESE
Spot 4 Rocket 4.3 03:58:48 10° N 04:03:50 54° WNW 04:06:08 30° SW
ADEOS 3.5 03:58:52 10° N 04:04:05 71° WNW 04:06:52 28° SSW
BREEZE-M DEB (TANK) 2.5 04:05:03 34° W 04:06:26 72° S 04:13:23 10° ESE
BREEZE M DEB (TANK) 3.1 04:05:41 35° WSW 04:06:45 44° SSW 04:14:54 10° SE
Cosmos 1447 Rocket 4.4 04:05:26 10° NNW 04:11:34 70° W 04:17:42 10° S
Okean O Rocket 3.9 04:08:24 10° NE 04:11:52 22° E 04:15:17 10° SE
Cosmos 2100 Rocket 4.4 04:06:17 10° S 04:12:34 65° E 04:18:52 10° NNE
COSMOS 2406 3.2 04:11:14 26° SW 04:14:33 78° WNW 04:20:17 10° NNE
Cosmos 1908 4.0 04:14:07 31° WSW 04:14:56 35° WNW 04:18:29 10° N
Cosmos 2098 Rocket 4.4 04:13:41 25° WSW 04:16:04 34° WNW 04:20:36 10° N
Cosmos 540 Rocket 4.2 04:17:56 24° WSW 04:20:22 39° WNW 04:25:12 10° N
Cosmos 1151 Rocket 4.4 04:16:43 10° SSE 04:20:38 36° E 04:24:35 10° NNE
Cosmos 2285 Rocket 4.0 04:16:37 21° SSW 04:21:01 78° WNW 04:27:28 10° NNE
MOS 1 Rocket 3.8 04:19:59 10° N 04:23:59 37° WNW 04:25:57 24° WSW
Meteor 2-10 4.4 04:19:23 10° S 04:25:01 76° E 04:30:39 10° NNE
Cosmos 1300 2.6 04:22:37 22° S 04:25:01 85° W 04:28:53 10° N
Sich 1 3.4 04:24:31 10° NNW 04:28:44 45° W 04:31:36 18° SSW
Cosmos 1980 Rocket 4.3 04:27:05 10° NNW 04:31:57 29° NE 04:36:50 10° ESE
CZ-2D R/B 3.5 04:28:18 10° N 04:32:15 54° WNW 04:34:38 22° SW
Cosmos 2278 3.9 04:30:25 10° NNW 04:36:06 78° ENE 04:41:46 10° SSE
Cosmos 1315 Rocket 3.5 04:33:46 10° NNW 04:37:29 35° W 04:39:52 18° SSW
Resurs 1-4 Rocket 3.2 04:34:05 10° N 04:38:32 29° WNW 04:41:35 17° WSW
Cosmos 2173 Rocket 4.0 04:32:33 10° S 04:38:52 89° W 04:45:17 10° N
Cosmos 1455 3.9 04:38:19 10° SSE 04:41:42 32° E 04:45:05 10° NNE
Meteor 2-17 Rocket 4.4 04:36:17 11° SSW 04:42:14 71° W 04:48:21 10° N
Cosmos 1470 Rocket 3.4 04:40:50 10° NNW 04:45:10 72° W 04:49:27 10° S
SL-16 R/B 3.9 04:45:49 15° WSW 04:48:01 18° W 04:52:09 10° NW
Cosmos 1697 Rocket 3.5 04:42:33 10° NNW 04:48:09 56° ENE 04:53:42 10° SE
USA 161 1.3 04:48:01 32° WSW 04:48:12 32° W 04:50:03 10° NNW
PSLV R/B 4.5 04:47:34 20° SW 04:48:40 24° S 04:51:21 10° SE
CZ-2D R/B 3.4 04:45:11 10° N 04:49:28 25° WNW 04:52:53 14° WSW
Cosmos 2228 Rocket 3.1 04:46:23 10° SSW 04:50:51 73° W 04:55:18 10° N
Cosmos 482 Debris 3.7 04:51:42 17° W 04:53:13 41° SSW 04:56:27 10° SE
Tiangong 2 3.7 04:52:31 10° SSE 04:53:29 11° SSE 04:54:27 10° SE
Cosmos 1538 Rocket 4.1 04:51:25 12° SSW 04:56:29 71° WNW 05:01:52 10° NNE
PSLV R/B 4.0 04:52:42 10° NNE 04:56:53 82° ESE 05:01:01 10° S
Cosmos 1633 Rocket 4.0 04:53:29 10° NNW 04:57:14 28° W 05:00:51 10° SSW
Cosmos 1515 Rocket 3.5 04:52:51 10° SSW 04:57:14 75° W 05:01:41 10° N
Cosmos 1459 Rocket 4.0 04:55:38 10° SSW 05:01:40 61° WNW 05:07:42 10° N
Cosmos 923 Rocket 4.4 05:00:05 10° S 05:05:14 68° ESE 05:10:29 10° NNE
Cosmos 2082 Rocket 3.0 05:00:55 10° S 05:06:19 52° ESE 05:11:47 10° NE
CZ-4B R/B 3.2 05:02:32 10° NNE 05:07:00 90° W 05:11:32 10° SSW
UNKNOWN OBJECT B 4.4 05:04:53 10° NNW 05:08:01 22° WNW 05:10:56 11° WSW
Meteor 2-3 Rocket 3.7 05:03:31 10° NNW 05:09:08 70° W 05:14:46 10° S
ARIANE 5 R/B 4.2 05:05:37 10° NNW 05:09:18 20° WNW 05:12:58 10° WSW
Lacrosse 5 1.8 05:04:25 10° NW 05:09:28 69° SW 05:14:30 10° SE
ATLAS 2AS CENTAUR R/B 3.9 05:02:59 10° NW 05:10:57 54° NE 05:18:25 10° ESE
Cosmos 1726 3.9 05:13:09 11° WSW 05:15:29 17° WNW 05:17:58 10° NNW
NOSS 3-1 (A) 4.2 05:09:52 10° NW 05:17:09 51° WSW 05:25:10 10° SSE
SL-27 R/B 3.9 05:15:35 10° WSW 05:18:14 22° WNW 05:21:00 10° N
Cosmos 1892 3.0 05:15:32 10° NNW 05:19:12 45° W 05:22:52 10° SSW
CZ-4B R/B 3.4 05:13:52 10° NNE 05:19:25 78° ESE 05:24:49 10° S
Shenzhou-11 Module 4.1 05:19:17 10° SSW 05:21:32 18° SSE 05:23:46 10° ESE
CZ-2C R/B 3.8 05:17:22 10° SSE 05:21:48 83° ENE 05:26:18 10° NNW
Cosmos 2061 Rocket 4.4 05:15:48 10° SSW 05:22:02 50° WNW 05:28:17 10° N
Landsat 4 3.7 05:20:13 10° S 05:23:55 61° WSW 05:27:40 10° NNW
Cosmos 1680 Rocket 3.8 05:19:02 10° SSW 05:24:18 76° ESE 05:29:39 10° NNE
PAYLOAD B 4.3 05:21:48 10° NNE 05:27:27 82° WNW 05:33:02 10° SSW
ADEOS II 2.4 05:24:10 10° N 05:29:14 50° WNW 05:34:17 10° SW
PSLV R/B 3.7 05:25:15 10° N 05:29:34 58° WNW 05:33:47 10° SSW
Cosmos 2369 4.1 05:25:01 10° NW 05:30:18 42° WSW 05:35:34 10° S
Cosmos 2112 Rocket 4.3 05:25:35 10° SSW 05:30:53 75° ESE 05:36:15 10° NNE
